Time,TemperatureF,DewpointF,PressureIn,WindDirection,WindDirectionDegrees,WindSpeedMPH,WindSpeedGustMPH,Humidity,HourlyPrecipIn,Conditions,Clouds,dailyrainin,SoftwareType,DateUTC
2013-02-04 00:10:00,23.9,22.4,30.02,NW,315,0.0,-999.0,94,-99.99,,,0.00,Acu-Link.com,2013-02-04 05:10:00,
2013-02-04 00:25:00,23.9,22.9,30.01,NW,315,0.0,-999.0,96,-99.99,,,0.00,Acu-Link.com,2013-02-04 05:25:00,
2013-02-04 00:40:00,23.5,22.5,30.02,NW,315,0.0,-999.0,96,-99.99,,,0.00,Acu-Link.com,2013-02-04 05:40:00,
2013-02-04 00:55:00,23.2,22.2,30.01,NW,315,1.7,-999.0,96,-99.99,,,0.00,Acu-Link.com,2013-02-04 05:55:00,
2013-02-04 01:10:00,23.0,22.0,30.00,NW,315,0.0,-999.0,96,-99.99,,,0.00,Acu-Link.com,2013-02-04 06:10:00,
2013-02-04 01:25:00,22.6,20.9,30.01,NW,315,0.0,-999.0,93,-99.99,,,0.00,Acu-Link.com,2013-02-04 06:25:00,
2013-02-04 01:41:00,22.5,21.5,30.00,NW,315,0.0,-999.0,96,-99.99,,,0.00,Acu-Link.com,2013-02-04 06:41:00,
2013-02-04 01:56:00,22.3,21.3,30.01,NW,315,0.0,-999.0,96,-99.99,,,0.00,Acu-Link.com,2013-02-04 06:56:00,
2013-02-04 02:11:00,22.1,20.6,29.98,NW,315,0.0,-999.0,94,-99.99,,,0.00,Acu-Link.com,2013-02-04 07:11:00,
2013-02-04 02:26:00,21.9,20.7,29.97,NW,315,0.0,-999.0,95,-99.99,,,0.00,Acu-Link.com,2013-02-04 07:26:00,
2013-02-04 02:41:00,21.7,21.0,29.98,NW,315,0.0,-999.0,97,-99.99,,,0.00,Acu-Link.com,2013-02-04 07:41:00,
2013-02-04 02:56:00,21.4,20.4,29.97,NW,315,0.0,-999.0,96,-99.99,,,0.00,Acu-Link.com,2013-02-04 07:56:00,
2013-02-04 03:12:00,21.0,19.8,29.97,NW,315,0.0,-999.0,95,-99.99,,,0.00,Acu-Link.com,2013-02-04 08:12:00,
2013-02-04 03:27:00,21.4,20.7,29.97,NW,315,0.0,-999.0,97,-99.99,,,0.00,Acu-Link.com,2013-02-04 08:27:00,
2013-02-04 03:42:00,21.0,20.0,29.96,NW,315,0.0,-999.0,96,-99.99,,,0.00,Acu-Link.com,2013-02-04 08:42:00,
2013-02-04 03:57:00,21.0,19.8,29.96,NW,315,0.0,-999.0,95,-99.99,,,0.00,Acu-Link.com,2013-02-04 08:57:00,
2013-02-04 04:12:00,20.8,19.8,29.95,NW,315,0.0,-999.0,96,-99.99,,,0.00,Acu-Link.com,2013-02-04 09:12:00,
2013-02-04 04:27:00,20.8,19.8,29.94,NW,315,0.0,-999.0,96,-99.99,,,0.00,Acu-Link.com,2013-02-04 09:27:00,
2013-02-04 04:42:00,21.0,20.0,29.96,NW,315,0.0,-999.0,96,-99.99,,,0.00,Acu-Link.com,2013-02-04 09:42:00,
2013-02-04 04:57:00,21.0,19.8,29.97,NW,315,0.0,-999.0,95,-99.99,,,0.00,Acu-Link.com,2013-02-04 09:57:00,
2013-02-04 05:12:00,21.2,20.5,29.96,NW,315,0.0,-999.0,97,-99.99,,,0.00,Acu-Link.com,2013-02-04 10:12:00,
2013-02-04 05:27:00,21.2,20.2,29.96,NW,315,0.0,-999.0,96,-99.99,,,0.00,Acu-Link.com,2013-02-04 10:27:00,
2013-02-04 05:43:00,21.6,20.9,29.98,NW,315,0.0,-999.0,97,-99.99,,,0.00,Acu-Link.com,2013-02-04 10:43:00,
2013-02-04 05:58:00,21.4,20.4,29.98,NW,315,0.0,-999.0,96,-99.99,,,0.00,Acu-Link.com,2013-02-04 10:58:00,
2013-02-04 06:13:00,21.0,19.8,29.98,NW,315,2.2,-999.0,95,-99.99,,,0.00,Acu-Link.com,2013-02-04 11:13:00,
2013-02-04 06:28:00,21.0,20.0,29.98,NW,315,0.0,-999.0,96,-99.99,,,0.00,Acu-Link.com,2013-02-04 11:28:00,
2013-02-04 06:43:00,20.7,19.7,29.97,NW,315,0.0,-999.0,96,-99.99,,,0.00,Acu-Link.com,2013-02-04 11:43:00,
2013-02-04 06:58:00,20.5,19.1,29.98,NW,315,0.0,-999.0,94,-99.99,,,0.00,Acu-Link.com,2013-02-04 11:58:00,
2013-02-04 07:13:00,20.5,19.5,29.97,NW,315,0.0,-999.0,96,-99.99,,,0.00,Acu-Link.com,2013-02-04 12:13:00,
2013-02-04 07:28:00,20.8,19.8,29.98,NW,315,0.0,-999.0,96,-99.99,,,0.00,Acu-Link.com,2013-02-04 12:28:00,
2013-02-04 07:43:00,21.0,19.8,29.98,NW,315,0.0,-999.0,95,-99.99,,,0.01,Acu-Link.com,2013-02-04 12:43:00,
2013-02-04 07:59:00,21.4,20.4,29.97,NW,315,0.0,-999.0,96,-99.99,,,0.01,Acu-Link.com,2013-02-04 12:59:00,
2013-02-04 08:14:00,23.2,22.5,29.97,NW,315,2.2,-999.0,97,-99.99,,,0.01,Acu-Link.com,2013-02-04 13:14:00,
2013-02-04 08:29:00,24.1,23.1,29.98,NW,315,1.7,-999.0,96,-99.99,,,0.01,Acu-Link.com,2013-02-04 13:29:00,
2013-02-04 08:44:00,25.2,24.2,29.99,NW,315,0.0,-999.0,96,-99.99,,,0.01,Acu-Link.com,2013-02-04 13:44:00,
2013-02-04 08:59:00,26.6,25.4,30.00,NW,315,0.0,-999.0,95,-99.99,,,0.01,Acu-Link.com,2013-02-04 13:59:00,
2013-02-04 09:14:00,27.9,26.7,29.99,NW,315,0.0,-999.0,95,-99.99,,,0.01,Acu-Link.com,2013-02-04 14:14:00,
2013-02-04 09:29:00,29.5,28.2,29.99,NW,315,0.0,-999.0,95,-99.99,,,0.01,Acu-Link.com,2013-02-04 14:29:00,
2013-02-04 09:44:00,31.3,30.0,29.99,NW,315,0.0,-999.0,95,-99.99,,,0.01,Acu-Link.com,2013-02-04 14:44:00,
2013-02-04 09:59:00,33.3,29.0,29.98,NE,45,2.2,-999.0,84,-99.99,,,0.01,Acu-Link.com,2013-02-04 14:59:00,
2013-02-04 10:15:00,34.0,30.0,29.98,ENE,67,0.0,-999.0,85,-99.99,,,0.01,Acu-Link.com,2013-02-04 15:15:00,
2013-02-04 10:30:00,35.8,30.2,29.98,NNE,22,1.1,-999.0,80,-99.99,,,0.01,Acu-Link.com,2013-02-04 15:30:00,
2013-02-04 10:45:00,35.2,29.4,29.97,NNW,337,1.7,-999.0,79,-99.99,,,0.01,Acu-Link.com,2013-02-04 15:45:00,
2013-02-04 11:00:00,39.9,30.2,29.96,East,90,1.1,-999.0,68,-99.99,,,0.01,Acu-Link.com,2013-02-04 16:00:00,
2013-02-04 11:15:00,42.1,30.0,29.95,ESE,112,2.7,-999.0,62,-99.99,,,0.01,Acu-Link.com,2013-02-04 16:15:00,
2013-02-04 11:30:00,43.5,28.9,29.95,North,0,2.7,-999.0,56,-99.99,,,0.01,Acu-Link.com,2013-02-04 16:30:00,
2013-02-04 11:45:00,46.2,29.6,29.93,NW,315,2.7,-999.0,52,-99.99,,,0.02,Acu-Link.com,2013-02-04 16:45:00,
2013-02-04 12:00:00,46.4,29.3,29.91,SSE,157,2.2,-999.0,51,-99.99,,,0.03,Acu-Link.com,2013-02-04 17:00:00,
2013-02-04 12:15:00,46.6,29.0,29.91,NNW,337,0.0,-999.0,50,-99.99,,,0.03,Acu-Link.com,2013-02-04 17:15:00,
2013-02-04 12:31:00,47.3,30.6,29.89,ESE,112,4.2,-999.0,52,-99.99,,,0.03,Acu-Link.com,2013-02-04 17:31:00,
2013-02-04 12:46:00,48.0,29.3,29.88,WSW,247,2.2,-999.0,48,-99.99,,,0.03,Acu-Link.com,2013-02-04 17:46:00,
2013-02-04 13:01:00,49.8,29.3,29.87,East,90,0.0,-999.0,45,-99.99,,,0.03,Acu-Link.com,2013-02-04 18:01:00,
2013-02-04 13:16:00,49.8,29.3,29.87,ESE,112,2.2,-999.0,45,-99.99,,,0.03,Acu-Link.com,2013-02-04 18:16:00,
2013-02-04 13:31:00,52.7,30.3,29.85,SE,135,2.2,-999.0,42,-99.99,,,0.03,Acu-Link.com,2013-02-04 18:31:00,
2013-02-04 13:46:00,52.5,30.1,29.84,ESE,112,2.7,-999.0,42,-99.99,,,0.03,Acu-Link.com,2013-02-04 18:46:00,
2013-02-04 14:01:00,53.1,30.0,29.84,SW,225,1.7,-999.0,41,-99.99,,,0.03,Acu-Link.com,2013-02-04 19:01:00,
2013-02-04 14:16:00,52.5,30.1,29.84,SW,225,2.2,-999.0,42,-99.99,,,0.03,Acu-Link.com,2013-02-04 19:16:00,
2013-02-04 14:31:00,52.0,28.4,29.83,West,270,4.7,-999.0,40,-99.99,,,0.03,Acu-Link.com,2013-02-04 19:31:00,
2013-02-04 14:47:00,49.5,27.4,29.84,SSW,202,3.2,-999.0,42,-99.99,,,0.03,Acu-Link.com,2013-02-04 19:47:00,
2013-02-04 15:02:00,52.3,29.3,29.82,SW,225,4.7,-999.0,41,-99.99,,,0.03,Acu-Link.com,2013-02-04 20:02:00,
2013-02-04 15:17:00,52.0,30.2,29.82,SW,225,4.7,-999.0,43,-99.99,,,0.03,Acu-Link.com,2013-02-04 20:17:00,
2013-02-04 15:32:00,50.4,29.9,29.83,WSW,247,4.7,-999.0,45,-99.99,,,0.03,Acu-Link.com,2013-02-04 20:32:00,
2013-02-04 15:47:00,49.8,30.4,29.82,WSW,247,3.2,-999.0,47,-99.99,,,0.03,Acu-Link.com,2013-02-04 20:47:00,
2013-02-04 16:02:00,49.6,29.1,29.82,SW,225,4.2,-999.0,45,-99.99,,,0.03,Acu-Link.com,2013-02-04 21:02:00,
2013-02-04 16:17:00,50.4,30.4,29.81,WSW,247,2.7,-999.0,46,-99.99,,,0.03,Acu-Link.com,2013-02-04 21:17:00,
2013-02-04 16:33:00,50.0,30.6,29.80,West,270,3.2,-999.0,47,-99.99,,,0.03,Acu-Link.com,2013-02-04 21:33:00,
2013-02-04 16:48:00,49.3,30.5,29.81,West,270,3.2,-999.0,48,-99.99,,,0.03,Acu-Link.com,2013-02-04 21:48:00,
2013-02-04 17:03:00,47.8,29.6,29.80,SSW,202,5.8,-999.0,49,-99.99,,,0.04,Acu-Link.com,2013-02-04 22:03:00,
2013-02-04 17:18:00,47.7,29.5,29.80,WSW,247,4.2,-999.0,49,-99.99,,,0.04,Acu-Link.com,2013-02-04 22:18:00,
2013-02-04 17:34:00,48.0,30.7,29.80,WSW,247,4.2,-999.0,51,-99.99,,,0.04,Acu-Link.com,2013-02-04 22:34:00,
2013-02-04 17:51:00,46.9,30.2,29.80,West,270,1.1,-999.0,52,-99.99,,,0.04,Acu-Link.com,2013-02-04 22:51:00,
2013-02-04 18:06:00,44.8,30.1,29.79,WSW,247,2.7,-999.0,56,-99.99,,,0.04,Acu-Link.com,2013-02-04 23:06:00,
2013-02-04 18:21:00,42.8,29.9,29.80,WNW,292,0.0,-999.0,60,-99.99,,,0.04,Acu-Link.com,2013-02-04 23:21:00,
2013-02-04 18:37:00,40.6,30.1,29.81,WSW,247,2.2,-999.0,66,-99.99,,,0.04,Acu-Link.com,2013-02-04 23:37:00,
2013-02-04 18:52:00,40.3,30.2,29.80,West,270,1.7,-999.0,67,-99.99,,,0.04,Acu-Link.com,2013-02-04 23:52:00,
2013-02-04 19:07:00,41.5,29.9,29.80,NW,315,2.7,-999.0,63,-99.99,,,0.04,Acu-Link.com,2013-02-05 00:07:00,
2013-02-04 19:22:00,40.8,32.5,29.80,West,270,0.0,-999.0,72,-99.99,,,0.04,Acu-Link.com,2013-02-05 00:22:00,
2013-02-04 19:37:00,40.1,31.1,29.80,WNW,292,2.7,-999.0,70,-99.99,,,0.04,Acu-Link.com,2013-02-05 00:37:00,
2013-02-04 19:52:00,40.1,32.2,29.81,NW,315,0.0,-999.0,73,-99.99,,,0.04,Acu-Link.com,2013-02-05 00:52:00,
2013-02-04 20:07:00,39.4,32.5,29.81,WNW,292,0.0,-999.0,76,-99.99,,,0.04,Acu-Link.com,2013-02-05 01:07:00,
2013-02-04 20:22:00,40.1,30.4,29.81,WNW,292,2.2,-999.0,68,-99.99,,,0.04,Acu-Link.com,2013-02-05 01:22:00,
2013-02-04 20:37:00,39.9,32.3,29.80,NNE,22,0.0,-999.0,74,-99.99,,,0.04,Acu-Link.com,2013-02-05 01:37:00,
2013-02-04 20:53:00,40.5,30.8,29.81,North,0,0.0,-999.0,68,-99.99,,,0.05,Acu-Link.com,2013-02-05 01:53:00,
2013-02-04 21:08:00,39.9,29.1,29.81,West,270,1.7,-999.0,65,-99.99,,,0.05,Acu-Link.com,2013-02-05 02:08:00,
2013-02-04 21:23:00,39.6,31.0,29.82,SE,135,1.1,-999.0,71,-99.99,,,0.05,Acu-Link.com,2013-02-05 02:23:00,
2013-02-04 21:38:00,39.6,32.0,29.81,SE,135,0.0,-999.0,74,-99.99,,,0.05,Acu-Link.com,2013-02-05 02:38:00,
2013-02-04 21:53:00,39.4,32.5,29.82,West,270,0.0,-999.0,76,-99.99,,,0.05,Acu-Link.com,2013-02-05 02:53:00,
2013-02-04 22:08:00,38.8,31.9,29.82,West,270,0.0,-999.0,76,-99.99,,,0.05,Acu-Link.com,2013-02-05 03:08:00,
2013-02-04 22:23:00,38.5,32.6,29.81,West,270,0.0,-999.0,79,-99.99,,,0.05,Acu-Link.com,2013-02-05 03:23:00,
2013-02-04 22:38:00,38.7,30.8,29.81,WNW,292,1.7,-999.0,73,-99.99,,,0.05,Acu-Link.com,2013-02-05 03:38:00,
2013-02-04 22:53:00,38.8,32.9,29.81,SSW,202,0.0,-999.0,79,-99.99,,,0.05,Acu-Link.com,2013-02-05 03:53:00,
2013-02-04 23:09:00,39.7,30.7,29.81,WSW,247,1.7,-999.0,70,-99.99,,,0.05,Acu-Link.com,2013-02-05 04:09:00,
2013-02-04 23:24:00,40.1,31.8,29.81,West,270,0.0,-999.0,72,-99.99,,,0.05,Acu-Link.com,2013-02-05 04:24:00,
2013-02-04 23:39:00,40.5,31.1,29.81,West,270,1.7,-999.0,69,-99.99,,,0.05,Acu-Link.com,2013-02-05 04:39:00,
2013-02-04 23:54:00,41.7,31.2,29.80,West,270,2.2,-999.0,66,-99.99,,,0.05,Acu-Link.com,2013-02-05 04:54:00,